Location: Moscow
(55.7500°N, 37.5830°E)
Time: 11:52:30
(UTC+03:00)

A-11 Canister half - Pass Details

Date: 30 November 2021
Orbit: 1516 x 1684 km, 47.2° (Epoch: 24 January)

Event Time Altitude Azimuth Distance (km) Brightness Sun altitude
Rises 11:51:53 0° 263° (W) 4,859 11.6 12.3°
Reaches altitude 10° 11:55:05 10° 258° (WSW) 3,892 11.3 12.4°
Maximum altitude 12:04:38 53° 186° (S) 1,998 10.6 12.5°
Drops below altitude 10° 12:14:20 10° 114° (ESE) 3,947 11.6 12.5°
Sets 12:17:35 0° 110° (ESE) 4,932 11.9 12.5°
